Darstellungsparameter: Aktuell verwendete Einstellungen:
Skalierung der Graphiken ... ?
xyx+y,   Skalierungsfaktor:      Skalierung: Modus: x, Faktor: 1
Darstellungszeitraum ... ?
Vom - - bis: - -   Zeitraum: 22.04.2020 - 12.05.2020
Min/Max/Avg-Anzeige ... ?
Zeige MMA aktuell
Zeige MMA Monat
Zeige MMA alles
Zeige --A aktuell
Zeige --A Monat
Zeige --A alles
Keine MMA-Anzeige
MMA:
Average (ber die Originaldaten)
MMA-Basis: 11.04.2020 - 13.05.2020
Quicknavigation für Darstellung... ?
Tage:      1T, 2T, 3T, 5T -1T -2T -3T -5T +1T +2T +3T +5T
Wochen: 1W, 2W, 3W -1W -2W -3W +1W +2W +3W
Monate: 1M, 3M, 6M -1M -3M -6M +1M +3M +6M
Jahre:    1J, 3J, 5J, 10J -1J -3J -5J -10J +1J +3J +5J +10J
Nutze für die Darstellung ... ?
Originaldaten oder ...
Mittelwerte Minima Maxima auf...
Stundenbasis Tagesbasis Wochenbasis
Monatsbasis Jahresbasis      Datenbasis: Mittelwerte auf Stundenbasis
Darstellen als:
Statistik (Auto) Statistik J:M      Darstellung:
Zur Graphik,    zurück zur Übersicht aller Sensoren.
 
Tabellarische Datenbersicht: ?
 
Sensor: Nr:Datum:Temp:Abs-Feuchte:Windchill:Wind:
Aussen-T/F 1 22-04-2020 00:00:00 11.28333 C 5.94 g/m*3 11.28 C 2.93333 km/h
2 22-04-2020 01:00:00 10.53333 C 5.95 g/m*3 10.53 C 2.14167 km/h
3 22-04-2020 02:00:00 9.98333 C 5.92 g/m*3 9.98 C 2.93333 km/h
4 22-04-2020 03:00:00 9.25833 C 5.89 g/m*3 9.26 C 0.93333 km/h
5 22-04-2020 04:00:00 8.41667 C 5.78 g/m*3 8.42 C 0.8 km/h
6 22-04-2020 05:00:00 7.49167 C 5.71 g/m*3 7.49 C 1.06667 km/h
7 22-04-2020 06:00:00 6.575 C 5.65 g/m*3 6.58 C 1.46667 km/h
8 22-04-2020 07:00:00 6.19167 C 5.83 g/m*3 6.19 C 2.53333 km/h
9 22-04-2020 08:00:00 7.35833 C 6.05 g/m*3 7.36 C 3.75 km/h
10 22-04-2020 09:00:00 10.36667 C 6.02 g/m*3 10.03 C 5.49167 km/h
11 22-04-2020 10:00:00 13.09167 C 5.88 g/m*3 13.09 C 8.06667 km/h
12 22-04-2020 11:00:00 15.875 C 5.68 g/m*3 15.88 C 11.15 km/h
13 22-04-2020 12:00:00 17.65 C 5.35 g/m*3 17.65 C 16.9 km/h
14 22-04-2020 13:00:00 18.93333 C 5.55 g/m*3 18.93 C 12.63333 km/h
15 22-04-2020 14:00:00 20.18333 C 5.74 g/m*3 20.18 C 14.23333 km/h
16 22-04-2020 15:00:00 21.40833 C 5.75 g/m*3 21.41 C 15.56667 km/h
17 22-04-2020 16:00:00 22.575 C 5.77 g/m*3 22.58 C 17.3 km/h
18 22-04-2020 17:00:00 22.65833 C 5.69 g/m*3 22.66 C 20.11667 km/h
19 22-04-2020 18:00:00 22.38333 C 5.59 g/m*3 22.38 C 18.50833 km/h
20 22-04-2020 19:00:00 21.275 C 5.58 g/m*3 21.28 C 12.09167 km/h
21 22-04-2020 20:00:00 18.38333 C 6.04 g/m*3 18.38 C 2.94167 km/h
22 22-04-2020 21:00:00 14.96667 C 6.03 g/m*3 14.97 C 1.46667 km/h
23 22-04-2020 22:00:00 13.81667 C 6.08 g/m*3 13.82 C 2.4 km/h
24 22-04-2020 23:00:00 13.74167 C 6.1 g/m*3 13.74 C 3.33333 km/h
25 23-04-2020 00:00:00 12.85 C 6.12 g/m*3 12.85 C 3.46667 km/h
Sensor: Nr:Datum:Temp:Abs-Feuchte:Windchill:Wind:
Aussen-T/F 26 23-04-2020 01:00:00 12.08333 C 6.14 g/m*3 12.08 C 3.34167 km/h
27 23-04-2020 02:00:00 10.35833 C 6.15 g/m*3 10.36 C 2 km/h
28 23-04-2020 03:00:00 9.51667 C 6.13 g/m*3 9.52 C 1.6 km/h
29 23-04-2020 04:00:00 8.39167 C 6.05 g/m*3 8.39 C 0.8 km/h
30 23-04-2020 05:00:00 6.975 C 5.97 g/m*3 6.98 C 0.26667 km/h
31 23-04-2020 06:00:00 6.3 C 5.9 g/m*3 6.3 C 0.13333 km/h
32 23-04-2020 07:00:00 5.95833 C 6.06 g/m*3 5.96 C 0.13333 km/h
33 23-04-2020 08:00:00 6.26667 C 6.41 g/m*3 6.27 C 0.8 km/h
34 23-04-2020 09:00:00 8.35 C 7.02 g/m*3 8.35 C 1.46667 km/h
35 23-04-2020 10:00:00 11.61667 C 7.35 g/m*3 11.62 C 2.00833 km/h
36 23-04-2020 11:00:00 16.36667 C 6.94 g/m*3 16.37 C 8.19167 km/h
37 23-04-2020 12:00:00 18.08333 C 6.71 g/m*3 18.08 C 10.48333 km/h
38 23-04-2020 13:00:00 19.425 C 5.88 g/m*3 19.43 C 9.675 km/h
39 23-04-2020 14:00:00 20.66667 C 5.93 g/m*3 20.67 C 9.55833 km/h
40 23-04-2020 15:00:00 22 C 5.97 g/m*3 22 C 8.475 km/h
41 23-04-2020 16:00:00 23.20833 C 6.07 g/m*3 23.21 C 10.225 km/h
42 23-04-2020 17:00:00 24.35833 C 6.12 g/m*3 24.36 C 7.24167 km/h
43 23-04-2020 18:00:00 25.35833 C 6.18 g/m*3 25.36 C 5.36667 km/h
44 23-04-2020 19:00:00 22.41667 C 8.81 g/m*3 22.42 C 3.875 km/h
45 23-04-2020 20:00:00 14.64167 C 8.41 g/m*3 14.64 C 6.85833 km/h
46 23-04-2020 21:00:00 12.975 C 7.37 g/m*3 12.98 C 1.6 km/h
47 23-04-2020 22:00:00 11.525 C 7.02 g/m*3 11.53 C 0 km/h
48 23-04-2020 23:00:00 10.15833 C 6.76 g/m*3 10.16 C 0 km/h
49 24-04-2020 00:00:00 9.33333 C 6.63 g/m*3 9.33 C 0.4 km/h
50 24-04-2020 01:00:00 8.5 C 6.57 g/m*3 8.5 C 0.8 km/h
Sensor: Nr:Datum:Temp:Abs-Feuchte:Windchill:Wind:
Aussen-T/F 51 24-04-2020 02:00:00 7.70833 C 6.46 g/m*3 7.71 C 0.4 km/h
52 24-04-2020 03:00:00 6.975 C 6.41 g/m*3 6.98 C 0.4 km/h
53 24-04-2020 04:00:00 6.50833 C 6.39 g/m*3 6.51 C 0.53333 km/h
54 24-04-2020 05:00:00 6.41667 C 6.43 g/m*3 6.42 C 0.4 km/h
55 24-04-2020 06:00:00 6.36667 C 6.47 g/m*3 6.37 C 0.66667 km/h
56 24-04-2020 07:00:00 6.59167 C 6.63 g/m*3 6.59 C 0.13333 km/h
57 24-04-2020 08:00:00 7.83333 C 7.04 g/m*3 7.83 C 0.4 km/h
58 24-04-2020 09:00:00 10.66667 C 7.6 g/m*3 10.67 C 0.26667 km/h
59 24-04-2020 10:00:00 12.975 C 8.09 g/m*3 12.98 C 2.13333 km/h
60 24-04-2020 11:00:00 15.21667 C 8.39 g/m*3 15.22 C 1.46667 km/h
61 24-04-2020 12:00:00 17.58333 C 8.57 g/m*3 17.58 C 5.1 km/h
62 24-04-2020 13:00:00 20.025 C 7.18 g/m*3 20.02 C 9.825 km/h
63 24-04-2020 14:00:00 21.325 C 7.67 g/m*3 21.33 C 10.23333 km/h
64 24-04-2020 15:00:00 22.06667 C 7.35 g/m*3 22.07 C 11.03333 km/h
65 24-04-2020 16:00:00 22.84167 C 6.48 g/m*3 22.84 C 11.69167 km/h
66 24-04-2020 17:00:00 22.55 C 5.98 g/m*3 22.55 C 14.36667 km/h
67 24-04-2020 18:00:00 21.59167 C 6.68 g/m*3 21.59 C 14.23333 km/h
68 24-04-2020 19:00:00 20.31667 C 7.25 g/m*3 20.32 C 12.9 km/h
69 24-04-2020 20:00:00 18.15833 C 7.43 g/m*3 18.16 C 5.50833 km/h
70 24-04-2020 21:00:00 15.80833 C 7.19 g/m*3 15.81 C 3.2 km/h
71 24-04-2020 22:00:00 14.64167 C 6.99 g/m*3 14.64 C 3.20833 km/h
72 24-04-2020 23:00:00 13.10833 C 6.03 g/m*3 13.11 C 2.675 km/h
73 25-04-2020 00:00:00 12.88333 C 6.03 g/m*3 12.88 C 5.89167 km/h
74 25-04-2020 01:00:00 11.725 C 6.53 g/m*3 11.73 C 5.61667 km/h
75 25-04-2020 02:00:00 10.53333 C 6.62 g/m*3 10.53 C 3.875 km/h
Sensor: Nr:Datum:Temp:Abs-Feuchte:Windchill:Wind:
Aussen-T/F 76 25-04-2020 03:00:00 10.20833 C 6.64 g/m*3 9.74 C 5.9 km/h
77 25-04-2020 04:00:00 9.44167 C 6.57 g/m*3 8.55 C 7.10833 km/h
78 25-04-2020 05:00:00 8.28333 C 6.77 g/m*3 8.28 C 4.68333 km/h
79 25-04-2020 06:00:00 8.35833 C 6.96 g/m*3 7.1 C 7.91667 km/h
80 25-04-2020 07:00:00 8.49167 C 6.76 g/m*3 7.31 C 7.65833 km/h
81 25-04-2020 08:00:00 8.59167 C 6.61 g/m*3 7.19 C 8.74167 km/h
82 25-04-2020 09:00:00 9.025 C 6.45 g/m*3 7.68 C 8.88333 km/h
83 25-04-2020 10:00:00 9.625 C 6.37 g/m*3 8.7 C 7.39167 km/h
84 25-04-2020 11:00:00 10.43333 C 6.37 g/m*3 9.5 C 8.075 km/h
85 25-04-2020 12:00:00 11.21667 C 6.37 g/m*3 11.22 C 8.725 km/h
86 25-04-2020 13:00:00 12.575 C 6.45 g/m*3 12.58 C 7.66667 km/h
87 25-04-2020 14:00:00 13.925 C 6.51 g/m*3 13.93 C 8.18333 km/h
88 25-04-2020 15:00:00 15.71667 C 6.65 g/m*3 15.72 C 7.79167 km/h
89 25-04-2020 16:00:00 17.66667 C 6.61 g/m*3 17.67 C 8.19167 km/h
90 25-04-2020 17:00:00 19.04167 C 6.55 g/m*3 19.04 C 7.8 km/h
91 25-04-2020 18:00:00 18.825 C 6.69 g/m*3 18.83 C 9.28333 km/h
92 25-04-2020 19:00:00 17.125 C 6.61 g/m*3 17.13 C 6.975 km/h
93 25-04-2020 20:00:00 14.51667 C 6.57 g/m*3 14.52 C 3.73333 km/h
94 25-04-2020 21:00:00 11.65 C 6.43 g/m*3 11.65 C 3.73333 km/h
95 25-04-2020 22:00:00 10.49167 C 6.37 g/m*3 10.21 C 5.35 km/h
96 25-04-2020 23:00:00 9.18333 C 6.37 g/m*3 9.18 C 2.53333 km/h
97 26-04-2020 00:00:00 7.45 C 6.24 g/m*3 7.45 C 0.13333 km/h
98 26-04-2020 01:00:00 6.125 C 6.1 g/m*3 6.13 C 0.13333 km/h
99 26-04-2020 02:00:00 5.325 C 6 g/m*3 5.33 C 0.53333 km/h
100 26-04-2020 03:00:00 4.76667 C 5.89 g/m*3 4.77 C 0.4 km/h
Sensor: Nr:Datum:Temp:Abs-Feuchte:Windchill:Wind:
Aussen-T/F 101 26-04-2020 04:00:00 4.03333 C 5.72 g/m*3 4.03 C 0 km/h
102 26-04-2020 05:00:00 3.475 C 5.61 g/m*3 3.48 C 0 km/h
103 26-04-2020 06:00:00 2.925 C 5.46 g/m*3 2.93 C 0 km/h
104 26-04-2020 07:00:00 3.09167 C 5.58 g/m*3 3.09 C 0 km/h
105 26-04-2020 08:00:00 3.94167 C 5.97 g/m*3 3.94 C 0.13333 km/h
106 26-04-2020 09:00:00 5.61667 C 6.72 g/m*3 5.62 C 0 km/h
107 26-04-2020 10:00:00 8.06667 C 7.53 g/m*3 8.07 C 0.4 km/h
108 26-04-2020 11:00:00 12.21667 C 7.72 g/m*3 12.22 C 1.73333 km/h
109 26-04-2020 12:00:00 15.26667 C 6.94 g/m*3 15.27 C 4.825 km/h
110 26-04-2020 13:00:00 16.9 C 6.56 g/m*3 16.9 C 7.79167 km/h
111 26-04-2020 14:00:00 17.8 C 6.73 g/m*3 17.8 C 9.00833 km/h
112 26-04-2020 15:00:00 19.10833 C 6.59 g/m*3 19.11 C 7.10833 km/h
113 26-04-2020 16:00:00 21.13333 C 6.43 g/m*3 21.13 C 7.24167 km/h
114 26-04-2020 17:00:00 22.33333 C 5.95 g/m*3 22.33 C 6.15 km/h
115 26-04-2020 18:00:00 22.68333 C 5.48 g/m*3 22.68 C 5.06667 km/h
116 26-04-2020 19:00:00 21.1 C 5.65 g/m*3 21.1 C 3.2 km/h
117 26-04-2020 20:00:00 17.01667 C 6.39 g/m*3 17.02 C 4.66667 km/h
118 26-04-2020 21:00:00 13.325 C 6.34 g/m*3 13.33 C 4.4 km/h
119 26-04-2020 22:00:00 11.36667 C 6.72 g/m*3 11.37 C 0.4 km/h
120 26-04-2020 23:00:00 9.58333 C 6.4 g/m*3 9.58 C 0.4 km/h
121 27-04-2020 00:00:00 8.48333 C 6.3 g/m*3 8.48 C 0.13333 km/h
122 27-04-2020 01:00:00 7.49167 C 6.25 g/m*3 7.49 C 0 km/h
123 27-04-2020 02:00:00 6.675 C 6.16 g/m*3 6.68 C 0.26667 km/h
124 27-04-2020 03:00:00 6.125 C 6.16 g/m*3 6.13 C 0.4 km/h
125 27-04-2020 04:00:00 5.38333 C 6 g/m*3 5.38 C 0 km/h
Sensor: Nr:Datum:Temp:Abs-Feuchte:Windchill:Wind:
Aussen-T/F 126 27-04-2020 05:00:00 4.51667 C 5.85 g/m*3 4.52 C 0 km/h
127 27-04-2020 06:00:00 4.23333 C 5.86 g/m*3 4.23 C 0.13333 km/h
128 27-04-2020 07:00:00 4.48333 C 6.02 g/m*3 4.48 C 0.26667 km/h
129 27-04-2020 08:00:00 5.44167 C 6.44 g/m*3 5.44 C 0.66667 km/h
130 27-04-2020 09:00:00 6.91667 C 7.03 g/m*3 6.92 C 0.13333 km/h
131 27-04-2020 10:00:00 9.85 C 8.03 g/m*3 9.85 C 0.26667 km/h
132 27-04-2020 11:00:00 15.41667 C 7.76 g/m*3 15.42 C 4 km/h
133 27-04-2020 12:00:00 18.025 C 7.43 g/m*3 18.02 C 4.94167 km/h
134 27-04-2020 13:00:00 19.6 C 6.92 g/m*3 19.6 C 9 km/h
135 27-04-2020 14:00:00 20.8 C 7.05 g/m*3 20.8 C 10.08333 km/h
136 27-04-2020 15:00:00 22.41667 C 6.91 g/m*3 22.42 C 11.03333 km/h
137 27-04-2020 16:00:00 22.7 C 6.94 g/m*3 22.7 C 12.63333 km/h
138 27-04-2020 17:00:00 21.45833 C 7.34 g/m*3 21.46 C 10.475 km/h
139 27-04-2020 18:00:00 22.59167 C 7.73 g/m*3 22.59 C 6.96667 km/h
140 27-04-2020 19:00:00 20.38333 C 8.48 g/m*3 20.38 C 5.475 km/h
141 27-04-2020 20:00:00 16.55 C 8.26 g/m*3 16.55 C 6 km/h
142 27-04-2020 21:00:00 14.55 C 8.22 g/m*3 14.55 C 4.26667 km/h
143 27-04-2020 22:00:00 13.2 C 8.18 g/m*3 13.2 C 1.46667 km/h
144 27-04-2020 23:00:00 12.11667 C 8.05 g/m*3 12.12 C 0 km/h
145 28-04-2020 00:00:00 10.725 C 7.89 g/m*3 10.73 C 0 km/h
146 28-04-2020 01:00:00 9.875 C 7.75 g/m*3 9.88 C 0 km/h
147 28-04-2020 02:00:00 9.11667 C 7.63 g/m*3 9.12 C 0.26667 km/h
148 28-04-2020 03:00:00 8.80833 C 7.62 g/m*3 8.81 C 0.4 km/h
149 28-04-2020 04:00:00 8.05 C 7.43 g/m*3 8.05 C 2.15 km/h
150 28-04-2020 05:00:00 8.14167 C 7.59 g/m*3 8.14 C 1.33333 km/h
Sensor: Nr:Datum:Temp:Abs-Feuchte:Windchill:Wind:
Aussen-T/F 151 28-04-2020 06:00:00 7.875 C 7.49 g/m*3 7.88 C 0 km/h
152 28-04-2020 07:00:00 8.86667 C 8.02 g/m*3 8.87 C 0.26667 km/h
153 28-04-2020 08:00:00 10.00833 C 8.62 g/m*3 10.01 C 0.13333 km/h
154 28-04-2020 09:00:00 11.13333 C 9.26 g/m*3 11.13 C 0.4 km/h
155 28-04-2020 10:00:00 12.60833 C 9.99 g/m*3 12.61 C 0 km/h
156 28-04-2020 11:00:00 14.01667 C 11.02 g/m*3 14.02 C 0.53333 km/h
157 28-04-2020 12:00:00 14.95833 C 11.85 g/m*3 14.96 C 0.26667 km/h
158 28-04-2020 13:00:00 15.05833 C 12 g/m*3 15.06 C 4.7 km/h
159 28-04-2020 14:00:00 16.275 C 12.58 g/m*3 16.27 C 13.69167 km/h
160 28-04-2020 15:00:00 16.24167 C 12.15 g/m*3 16.24 C 15.43333 km/h
161 28-04-2020 16:00:00 16.81667 C 11.91 g/m*3 16.82 C 17.3 km/h
162 28-04-2020 17:00:00 16.90833 C 11.26 g/m*3 16.91 C 13.56667 km/h
163 28-04-2020 18:00:00 17.675 C 10.97 g/m*3 17.68 C 12.09167 km/h
164 28-04-2020 19:00:00 16.925 C 10.77 g/m*3 16.93 C 6.43333 km/h
165 28-04-2020 20:00:00 14.95833 C 10.45 g/m*3 14.96 C 5.46667 km/h
166 28-04-2020 21:00:00 13.4 C 10.01 g/m*3 13.4 C 9.675 km/h
167 28-04-2020 22:00:00 13.30833 C 10 g/m*3 13.31 C 3.86667 km/h
168 28-04-2020 23:00:00 12.88333 C 10.03 g/m*3 12.88 C 1.33333 km/h
169 29-04-2020 00:00:00 12.35833 C 9.81 g/m*3 12.36 C 1.73333 km/h
170 29-04-2020 01:00:00 11.95833 C 9.73 g/m*3 11.96 C 1.6 km/h
171 29-04-2020 02:00:00 12.05833 C 9.66 g/m*3 12.06 C 7.11667 km/h
172 29-04-2020 03:00:00 12.025 C 9.4 g/m*3 12.03 C 3.86667 km/h
173 29-04-2020 04:00:00 12.00833 C 9.49 g/m*3 12.01 C 1.33333 km/h
174 29-04-2020 05:00:00 11.8 C 9.38 g/m*3 11.8 C 1.46667 km/h
175 29-04-2020 06:00:00 11.65833 C 9.35 g/m*3 11.66 C 1.60833 km/h
Sensor: Nr:Datum:Temp:Abs-Feuchte:Windchill:Wind:
Aussen-T/F 176 29-04-2020 07:00:00 12.03333 C 9.48 g/m*3 12.03 C 4.96667 km/h
177 29-04-2020 08:00:00 12.81667 C 9.47 g/m*3 12.82 C 9.68333 km/h
178 29-04-2020 09:00:00 13.40833 C 9.28 g/m*3 13.41 C 15.56667 km/h
179 29-04-2020 10:00:00 14.65 C 9.11 g/m*3 14.65 C 13.43333 km/h
180 29-04-2020 11:00:00 15.75833 C 9.06 g/m*3 15.76 C 16.10833 km/h
181 29-04-2020 12:00:00 16 C 8.8 g/m*3 16 C 14.9 km/h
182 29-04-2020 13:00:00 16.225 C 8.99 g/m*3 16.23 C 16.63333 km/h
183 29-04-2020 14:00:00 15.96667 C 9.23 g/m*3 15.97 C 13.83333 km/h
184 29-04-2020 15:00:00 17.4 C 9.41 g/m*3 17.4 C 13.96667 km/h
185 29-04-2020 16:00:00 17.14167 C 9.28 g/m*3 17.14 C 13.56667 km/h
186 29-04-2020 17:00:00 17.875 C 9.67 g/m*3 17.88 C 10.49167 km/h
187 29-04-2020 18:00:00 17.85833 C 9.23 g/m*3 17.86 C 10.21667 km/h
188 29-04-2020 19:00:00 17.35 C 9.38 g/m*3 17.35 C 7.65833 km/h
189 29-04-2020 20:00:00 15.3 C 9.11 g/m*3 15.3 C 2.66667 km/h
190 29-04-2020 21:00:00 13.6 C 9.05 g/m*3 13.6 C 2 km/h
191 29-04-2020 22:00:00 13.275 C 9.18 g/m*3 13.28 C 2 km/h
192 29-04-2020 23:00:00 13.15 C 9.36 g/m*3 13.15 C 0.93333 km/h
193 30-04-2020 00:00:00 13.225 C 9.32 g/m*3 13.23 C 3.625 km/h
194 30-04-2020 01:00:00 13.43333 C 9.22 g/m*3 13.43 C 5.35833 km/h
195 30-04-2020 02:00:00 12.70833 C 9.33 g/m*3 12.71 C 4.95 km/h
196 30-04-2020 03:00:00 12.00833 C 9.07 g/m*3 12.01 C 2.8 km/h
197 30-04-2020 04:00:00 11.49167 C 9.32 g/m*3 11.49 C 0.53333 km/h
198 30-04-2020 05:00:00 11.29167 C 9.52 g/m*3 11.29 C 1.2 km/h
199 30-04-2020 06:00:00 11.2 C 9.54 g/m*3 11.2 C 2.54167 km/h
200 30-04-2020 07:00:00 10.71667 C 9.25 g/m*3 10.06 C 6.98333 km/h
Sensor: Nr:Datum:Temp:Abs-Feuchte:Windchill:Wind:
Aussen-T/F 201 30-04-2020 08:00:00 10.475 C 9.09 g/m*3 9.5 C 8.33333 km/h
202 30-04-2020 09:00:00 11.65833 C 9.44 g/m*3 11.66 C 9.69167 km/h
203 30-04-2020 10:00:00 13.16667 C 9.41 g/m*3 13.17 C 13.43333 km/h
204 30-04-2020 11:00:00 13.85833 C 9.25 g/m*3 13.86 C 10.09167 km/h
205 30-04-2020 12:00:00 13.925 C 8.65 g/m*3 13.93 C 16.375 km/h
206 30-04-2020 13:00:00 14.075 C 8.1 g/m*3 14.08 C 16.775 km/h
207 30-04-2020 14:00:00 15.525 C 8.05 g/m*3 15.53 C 17.03333 km/h
208 30-04-2020 15:00:00 15.88333 C 7.98 g/m*3 15.88 C 11.01667 km/h
209 30-04-2020 16:00:00 15.61667 C 8.24 g/m*3 15.62 C 6.29167 km/h
210 30-04-2020 17:00:00 13.375 C 9.09 g/m*3 13.38 C 9.54167 km/h
211 30-04-2020 18:00:00 10.88333 C 8.99 g/m*3 9.63 C 10.34167 km/h
212 30-04-2020 19:00:00 10.65833 C 8.96 g/m*3 10.06 C 6.7 km/h
213 30-04-2020 20:00:00 10.375 C 8.76 g/m*3 10.38 C 1.73333 km/h
214 30-04-2020 21:00:00 9.425 C 8.45 g/m*3 9.43 C 1.06667 km/h
215 30-04-2020 22:00:00 9.23333 C 8.46 g/m*3 9.23 C 2.26667 km/h
216 30-04-2020 23:00:00 8.98333 C 8.39 g/m*3 8.57 C 5.1 km/h
217 01-05-2020 00:00:00 8.93333 C 8.34 g/m*3 8.13 C 6.425 km/h
218 01-05-2020 01:00:00 8.325 C 8.01 g/m*3 6.69 C 9.66667 km/h
219 01-05-2020 02:00:00 8.15833 C 7.85 g/m*3 6.8 C 8.18333 km/h
220 01-05-2020 03:00:00 8.075 C 7.84 g/m*3 7.45 C 5.35833 km/h
221 01-05-2020 04:00:00 7.825 C 7.72 g/m*3 7.83 C 1.6 km/h
222 01-05-2020 05:00:00 8.525 C 8.17 g/m*3 7.45 C 7.24167 km/h
223 01-05-2020 06:00:00 8.38333 C 7.93 g/m*3 7.72 C 5.625 km/h
224 01-05-2020 07:00:00 8.05833 C 7.85 g/m*3 8.06 C 1.88333 km/h
225 01-05-2020 08:00:00 8.84167 C 8.25 g/m*3 8.84 C 1.06667 km/h
Sensor: Nr:Datum:Temp:Abs-Feuchte:Windchill:Wind:
Aussen-T/F 226 01-05-2020 09:00:00 9.925 C 8.78 g/m*3 9.34 C 6.16667 km/h
227 01-05-2020 10:00:00 10.80833 C 8.73 g/m*3 9.61 C 9.94167 km/h
228 01-05-2020 11:00:00 12.25 C 8.63 g/m*3 12.25 C 12.76667 km/h
229 01-05-2020 12:00:00 11.96667 C 8.74 g/m*3 11.97 C 9.68333 km/h
230 01-05-2020 13:00:00 11.11667 C 8.59 g/m*3 11.12 C 11.28333 km/h
231 01-05-2020 14:00:00 12.925 C 8.57 g/m*3 12.93 C 14.5 km/h
232 01-05-2020 15:00:00 13.96667 C 8.46 g/m*3 13.97 C 13.825 km/h
233 01-05-2020 16:00:00 14.46667 C 9.13 g/m*3 14.47 C 13.43333 km/h
234 01-05-2020 17:00:00 14.76667 C 9.05 g/m*3 14.77 C 13.16667 km/h
235 01-05-2020 18:00:00 13.45 C 9.33 g/m*3 13.45 C 5.89167 km/h
236 01-05-2020 19:00:00 12.66667 C 8.77 g/m*3 12.67 C 6.83333 km/h
237 01-05-2020 20:00:00 11.25833 C 8.26 g/m*3 11.26 C 7.4 km/h
238 01-05-2020 21:00:00 10.26667 C 8.18 g/m*3 10.03 C 5.08333 km/h
239 01-05-2020 22:00:00 9.28333 C 7.96 g/m*3 8.91 C 5.09167 km/h
240 01-05-2020 23:00:00 9.6 C 8.12 g/m*3 8.31 C 9.14167 km/h
241 02-05-2020 00:00:00 9.41667 C 8.06 g/m*3 9.42 C 4.28333 km/h
242 02-05-2020 01:00:00 9.3 C 8.02 g/m*3 8.03 C 8.75833 km/h
243 02-05-2020 02:00:00 8.85833 C 7.91 g/m*3 8.07 C 6.30833 km/h
244 02-05-2020 03:00:00 9.33333 C 7.94 g/m*3 8.81 C 5.63333 km/h
245 02-05-2020 04:00:00 9.05833 C 7.86 g/m*3 9.06 C 3.88333 km/h
246 02-05-2020 05:00:00 8.96667 C 7.7 g/m*3 7.75 C 8.20833 km/h
247 02-05-2020 06:00:00 8.25833 C 7.38 g/m*3 6.66 C 9.41667 km/h
248 02-05-2020 07:00:00 8.49167 C 7.42 g/m*3 6.5 C 11.95 km/h
249 02-05-2020 08:00:00 9.28333 C 7.63 g/m*3 7.49 C 11.7 km/h
250 02-05-2020 09:00:00 10.19167 C 7.64 g/m*3 7.82 C 17.96667 km/h
Sensor: Nr:Datum:Temp:Abs-Feuchte:Windchill:Wind:
Aussen-T/F 251 02-05-2020 10:00:00 8.675 C 7.47 g/m*3 6.76 C 11.68333 km/h
252 02-05-2020 11:00:00 8.6 C 8.01 g/m*3 7.5 C 7.38333 km/h
253 02-05-2020 12:00:00 10.09167 C 8.16 g/m*3 8.49 C 11.55 km/h
254 02-05-2020 13:00:00 11.49167 C 7.99 g/m*3 11.49 C 16.23333 km/h
255 02-05-2020 14:00:00 11.825 C 7.82 g/m*3 11.83 C 18.90833 km/h
256 02-05-2020 15:00:00 9.575 C 8.24 g/m*3 8.44 C 8.325 km/h
257 02-05-2020 16:00:00 13.45 C 9.07 g/m*3 13.45 C 7.90833 km/h
258 02-05-2020 17:00:00 14.04167 C 8.79 g/m*3 14.04 C 7.93333 km/h
259 02-05-2020 18:00:00 13.38333 C 7.71 g/m*3 13.38 C 13.03333 km/h
260 02-05-2020 19:00:00 11.7 C 7.57 g/m*3 11.7 C 10.34167 km/h
261 02-05-2020 20:00:00 11.43333 C 7.69 g/m*3 11.43 C 6.03333 km/h
262 02-05-2020 21:00:00 8.71667 C 7.42 g/m*3 7.88 C 6.43333 km/h
263 02-05-2020 22:00:00 7.43333 C 7.15 g/m*3 7.43 C 1.86667 km/h
264 02-05-2020 23:00:00 6.875 C 7.06 g/m*3 6.88 C 3.33333 km/h
265 03-05-2020 00:00:00 6.375 C 6.89 g/m*3 6.38 C 2.66667 km/h
266 03-05-2020 01:00:00 5.60833 C 6.6 g/m*3 5.61 C 0.8 km/h
267 03-05-2020 02:00:00 5.26667 C 6.5 g/m*3 5.27 C 1.46667 km/h
268 03-05-2020 03:00:00 4.81667 C 6.35 g/m*3 4.82 C 2.13333 km/h
269 03-05-2020 04:00:00 4.23333 C 6.12 g/m*3 4.23 C 0.26667 km/h
270 03-05-2020 05:00:00 3.53333 C 5.86 g/m*3 3.53 C 0.4 km/h
271 03-05-2020 06:00:00 4.21667 C 6.19 g/m*3 4.22 C 0.93333 km/h
272 03-05-2020 07:00:00 4.5 C 6.31 g/m*3 4.5 C 4.40833 km/h
273 03-05-2020 08:00:00 4.94167 C 6.52 g/m*3 4.94 C 2.13333 km/h
274 03-05-2020 09:00:00 6.21667 C 7.14 g/m*3 6.22 C 2.53333 km/h
275 03-05-2020 10:00:00 8.56667 C 8.17 g/m*3 8.57 C 0.8 km/h
Sensor: Nr:Datum:Temp:Abs-Feuchte:Windchill:Wind:
Aussen-T/F 276 03-05-2020 11:00:00 12.21667 C 8.49 g/m*3 12.22 C 6.16667 km/h
277 03-05-2020 12:00:00 14.23333 C 7.22 g/m*3 14.23 C 8.88333 km/h
278 03-05-2020 13:00:00 15.40833 C 6.64 g/m*3 15.41 C 10.75833 km/h
279 03-05-2020 14:00:00 16.23333 C 6.6 g/m*3 16.23 C 9.41667 km/h
280 03-05-2020 15:00:00 17.39167 C 6.83 g/m*3 17.39 C 9.825 km/h
281 03-05-2020 16:00:00 17.38333 C 7.07 g/m*3 17.38 C 8.875 km/h
282 03-05-2020 17:00:00 16.975 C 7.13 g/m*3 16.98 C 8.2 km/h
283 03-05-2020 18:00:00 16.625 C 7.57 g/m*3 16.63 C 4.94167 km/h
284 03-05-2020 19:00:00 15.84167 C 8.7 g/m*3 15.84 C 3.86667 km/h
285 03-05-2020 20:00:00 13.48333 C 8.62 g/m*3 13.48 C 5.6 km/h
286 03-05-2020 21:00:00 12.08333 C 8.36 g/m*3 12.08 C 3.33333 km/h
287 03-05-2020 22:00:00 11.75 C 8.37 g/m*3 11.75 C 0.4 km/h
288 03-05-2020 23:00:00 11.46667 C 8.28 g/m*3 11.47 C 1.2 km/h
289 04-05-2020 00:00:00 11.31667 C 8.3 g/m*3 11.32 C 0 km/h
290 04-05-2020 01:00:00 11.075 C 8.2 g/m*3 11.08 C 0.53333 km/h
291 04-05-2020 02:00:00 11.025 C 8.33 g/m*3 11.03 C 0 km/h
292 04-05-2020 03:00:00 10 C 7.89 g/m*3 10 C 0.66667 km/h
293 04-05-2020 04:00:00 9.28333 C 7.82 g/m*3 9.28 C 0 km/h
294 04-05-2020 05:00:00 9.71667 C 8.13 g/m*3 9.72 C 0 km/h
295 04-05-2020 06:00:00 9.875 C 8.3 g/m*3 9.88 C 0 km/h
296 04-05-2020 07:00:00 10.49167 C 8.64 g/m*3 10.49 C 1.875 km/h
297 04-05-2020 08:00:00 11.59167 C 9.38 g/m*3 11.59 C 3.20833 km/h
298 04-05-2020 09:00:00 11.86667 C 9.8 g/m*3 11.87 C 1.46667 km/h
299 04-05-2020 10:00:00 13.20833 C 10.36 g/m*3 13.21 C 6.44167 km/h
300 04-05-2020 11:00:00 13.23333 C 10.31 g/m*3 13.23 C 6.44167 km/h
Sensor: Nr:Datum:Temp:Abs-Feuchte:Windchill:Wind:
Aussen-T/F 301 04-05-2020 12:00:00 12.65 C 10.19 g/m*3 12.65 C 9 km/h
302 04-05-2020 13:00:00 14.00833 C 10.36 g/m*3 14.01 C 7.79167 km/h
303 04-05-2020 14:00:00 14.725 C 10.21 g/m*3 14.73 C 12.1 km/h
304 04-05-2020 15:00:00 14.33333 C 9.85 g/m*3 14.33 C 8.88333 km/h
305 04-05-2020 16:00:00 14.59167 C 9.28 g/m*3 14.59 C 11.43333 km/h
306 04-05-2020 17:00:00 14.3 C 8.87 g/m*3 14.3 C 11.28333 km/h
307 04-05-2020 18:00:00 14.05833 C 8.52 g/m*3 14.06 C 5.475 km/h
308 04-05-2020 19:00:00 13.45 C 9.03 g/m*3 13.45 C 0.66667 km/h
309 04-05-2020 20:00:00 12.61667 C 9.07 g/m*3 12.62 C 1.73333 km/h
310 04-05-2020 21:00:00 10.54167 C 7.76 g/m*3 10.54 C 1.06667 km/h
311 04-05-2020 22:00:00 8.55 C 7.16 g/m*3 8.55 C 0.93333 km/h
312 04-05-2020 23:00:00 7.25833 C 6.87 g/m*3 7.26 C 2.4 km/h
313 05-05-2020 00:00:00 6.40833 C 6.65 g/m*3 6.41 C 1.33333 km/h
314 05-05-2020 01:00:00 5.625 C 6.46 g/m*3 5.63 C 0 km/h
315 05-05-2020 02:00:00 4.9 C 6.26 g/m*3 4.9 C 0 km/h
316 05-05-2020 03:00:00 4.81667 C 6.3 g/m*3 4.82 C 0.53333 km/h
317 05-05-2020 04:00:00 4.51667 C 6.2 g/m*3 4.52 C 0 km/h
318 05-05-2020 05:00:00 4.23333 C 6.13 g/m*3 4.23 C 0 km/h
319 05-05-2020 06:00:00 4.39167 C 6.22 g/m*3 4.39 C 0 km/h
320 05-05-2020 07:00:00 5.38333 C 6.69 g/m*3 5.38 C 0 km/h
321 05-05-2020 08:00:00 6.54167 C 7.19 g/m*3 6.54 C 0.8 km/h
322 05-05-2020 09:00:00 7.90833 C 7.27 g/m*3 7.18 C 5.61667 km/h
323 05-05-2020 10:00:00 9.675 C 7.07 g/m*3 9.12 C 5.90833 km/h
324 05-05-2020 11:00:00 11.85833 C 7.03 g/m*3 11.86 C 8.33333 km/h
325 05-05-2020 12:00:00 12.825 C 7.11 g/m*3 12.83 C 7.50833 km/h
Sensor: Nr:Datum:Temp:Abs-Feuchte:Windchill:Wind:
Aussen-T/F 326 05-05-2020 13:00:00 13.35833 C 6.97 g/m*3 13.36 C 7.10833 km/h
327 05-05-2020 14:00:00 14.09167 C 6.5 g/m*3 14.09 C 7.24167 km/h
328 05-05-2020 15:00:00 16.15 C 5.81 g/m*3 16.15 C 11.425 km/h
329 05-05-2020 16:00:00 17.71667 C 5.41 g/m*3 17.72 C 9.8 km/h
330 05-05-2020 17:00:00 18.20833 C 4.99 g/m*3 18.21 C 10.21667 km/h
331 05-05-2020 18:00:00 18.11667 C 4.67 g/m*3 18.12 C 10.21667 km/h
332 05-05-2020 19:00:00 17.075 C 4.51 g/m*3 17.08 C 10.09167 km/h
333 05-05-2020 20:00:00 15.075 C 4.86 g/m*3 15.08 C 6.98333 km/h
334 05-05-2020 21:00:00 11.24167 C 5.89 g/m*3 11.24 C 3.6 km/h
335 05-05-2020 22:00:00 9.13333 C 5.8 g/m*3 9.13 C 3.6 km/h
336 05-05-2020 23:00:00 8.15 C 5.65 g/m*3 8.15 C 2.53333 km/h
337 06-05-2020 00:00:00 7.225 C 5.63 g/m*3 7.23 C 2.13333 km/h
338 06-05-2020 01:00:00 5.90833 C 5.55 g/m*3 5.91 C 1.33333 km/h
339 06-05-2020 02:00:00 4.51667 C 5.43 g/m*3 4.52 C 0 km/h
340 06-05-2020 03:00:00 3.55 C 5.3 g/m*3 3.55 C 0 km/h
341 06-05-2020 04:00:00 3.01667 C 5.25 g/m*3 3.02 C 0 km/h
342 06-05-2020 05:00:00 2.55833 C 5.19 g/m*3 2.56 C 0.13333 km/h
343 06-05-2020 06:00:00 2.1 C 5.12 g/m*3 2.1 C 0 km/h
344 06-05-2020 07:00:00 2.43333 C 5.32 g/m*3 2.43 C 0.26667 km/h
345 06-05-2020 08:00:00 3.50833 C 5.78 g/m*3 3.51 C 0.13333 km/h
346 06-05-2020 09:00:00 5.75 C 6.6 g/m*3 5.75 C 0.53333 km/h
347 06-05-2020 10:00:00 9.43333 C 6.4 g/m*3 8.39 C 7.79167 km/h
348 06-05-2020 11:00:00 12.89167 C 4.86 g/m*3 12.89 C 9.80833 km/h
349 06-05-2020 12:00:00 13.75 C 4.66 g/m*3 13.75 C 9.125 km/h
350 06-05-2020 13:00:00 14.6 C 4.97 g/m*3 14.6 C 10.35 km/h
Sensor: Nr:Datum:Temp:Abs-Feuchte:Windchill:Wind:
Aussen-T/F 351 06-05-2020 14:00:00 15.80833 C 4.81 g/m*3 15.81 C 11.15833 km/h
352 06-05-2020 15:00:00 17.31667 C 4.82 g/m*3 17.32 C 11.15833 km/h
353 06-05-2020 16:00:00 18.90833 C 4.97 g/m*3 18.91 C 10.34167 km/h
354 06-05-2020 17:00:00 19.7 C 5.17 g/m*3 19.7 C 7.10833 km/h
355 06-05-2020 18:00:00 20.23333 C 5.27 g/m*3 20.23 C 6.28333 km/h
356 06-05-2020 19:00:00 19.125 C 5.42 g/m*3 19.13 C 4.95 km/h
357 06-05-2020 20:00:00 16.2 C 6.88 g/m*3 16.2 C 5.225 km/h
358 06-05-2020 21:00:00 12.05 C 6.59 g/m*3 12.05 C 5.51667 km/h
359 06-05-2020 22:00:00 9.7 C 6.55 g/m*3 9.7 C 1.86667 km/h
360 06-05-2020 23:00:00 8.04167 C 6.33 g/m*3 8.04 C 0 km/h
361 07-05-2020 00:00:00 6.85833 C 6.16 g/m*3 6.86 C 0.53333 km/h
362 07-05-2020 01:00:00 6.425 C 6.14 g/m*3 6.43 C 0.66667 km/h
363 07-05-2020 02:00:00 5.54167 C 5.99 g/m*3 5.54 C 0 km/h
364 07-05-2020 03:00:00 4.825 C 5.89 g/m*3 4.83 C 0 km/h
365 07-05-2020 04:00:00 4.26667 C 5.78 g/m*3 4.27 C 0 km/h
366 07-05-2020 05:00:00 3.675 C 5.65 g/m*3 3.68 C 0.4 km/h
367 07-05-2020 06:00:00 3.4 C 5.62 g/m*3 3.4 C 0.13333 km/h
368 07-05-2020 07:00:00 3.575 C 5.75 g/m*3 3.58 C 0.13333 km/h
369 07-05-2020 08:00:00 4.40833 C 6.12 g/m*3 4.41 C 0.13333 km/h
370 07-05-2020 09:00:00 6.24167 C 6.91 g/m*3 6.24 C 0 km/h
371 07-05-2020 10:00:00 9.14167 C 7.81 g/m*3 9.14 C 0.8 km/h
372 07-05-2020 11:00:00 13.8 C 7.87 g/m*3 13.8 C 2 km/h
373 07-05-2020 12:00:00 16.45 C 6.5 g/m*3 16.45 C 6.03333 km/h
374 07-05-2020 13:00:00 17.80833 C 6.93 g/m*3 17.81 C 8.46667 km/h
375 07-05-2020 14:00:00 19.06667 C 6.69 g/m*3 19.07 C 7.38333 km/h
Sensor: Nr:Datum:Temp:Abs-Feuchte:Windchill:Wind:
Aussen-T/F 376 07-05-2020 15:00:00 20.79167 C 6.7 g/m*3 20.79 C 7.38333 km/h
377 07-05-2020 16:00:00 22.85833 C 6.95 g/m*3 22.86 C 6.425 km/h
378 07-05-2020 17:00:00 23.225 C 6.84 g/m*3 23.23 C 6.70833 km/h
379 07-05-2020 18:00:00 23.425 C 6.86 g/m*3 23.43 C 6.7 km/h
380 07-05-2020 19:00:00 22.66667 C 7.9 g/m*3 22.67 C 4.54167 km/h
381 07-05-2020 20:00:00 18.3 C 8.22 g/m*3 18.3 C 6.29167 km/h
382 07-05-2020 21:00:00 15.26667 C 8.04 g/m*3 15.27 C 3.86667 km/h
383 07-05-2020 22:00:00 13.04167 C 8.02 g/m*3 13.04 C 0.13333 km/h
384 07-05-2020 23:00:00 11.76667 C 7.73 g/m*3 11.77 C 0.13333 km/h
385 08-05-2020 00:00:00 10.66667 C 7.47 g/m*3 10.67 C 0 km/h
386 08-05-2020 01:00:00 9.825 C 7.45 g/m*3 9.82 C 0.66667 km/h
387 08-05-2020 02:00:00 9.275 C 7.4 g/m*3 9.28 C 0 km/h
388 08-05-2020 03:00:00 8.275 C 7.21 g/m*3 8.28 C 0 km/h
389 08-05-2020 04:00:00 7.61667 C 7.08 g/m*3 7.62 C 0 km/h
390 08-05-2020 05:00:00 7.65 C 7.22 g/m*3 7.65 C 0.4 km/h
391 08-05-2020 06:00:00 7.20833 C 7.08 g/m*3 7.21 C 0.13333 km/h
392 08-05-2020 07:00:00 7.275 C 7.25 g/m*3 7.28 C 0.4 km/h
393 08-05-2020 08:00:00 8.43333 C 7.79 g/m*3 8.43 C 0.13333 km/h
394 08-05-2020 09:00:00 9.88333 C 8.39 g/m*3 9.88 C 0.53333 km/h
395 08-05-2020 10:00:00 12.45833 C 9.17 g/m*3 12.46 C 0.26667 km/h
396 08-05-2020 11:00:00 16.40833 C 9.44 g/m*3 16.41 C 1.6 km/h
397 08-05-2020 12:00:00 19.05833 C 8.07 g/m*3 19.06 C 2.66667 km/h
398 08-05-2020 13:00:00 20.78333 C 7.61 g/m*3 20.78 C 5.49167 km/h
399 08-05-2020 14:00:00 22.25833 C 7.06 g/m*3 22.26 C 6.15833 km/h
400 08-05-2020 15:00:00 23.13333 C 7.01 g/m*3 23.13 C 4.8 km/h
Sensor: Nr:Datum:Temp:Abs-Feuchte:Windchill:Wind:
Aussen-T/F 401 08-05-2020 16:00:00 24.94167 C 6.71 g/m*3 24.94 C 4.81667 km/h
402 08-05-2020 17:00:00 24.59167 C 7.29 g/m*3 24.59 C 4.66667 km/h
403 08-05-2020 18:00:00 24.575 C 7.25 g/m*3 24.58 C 6.01667 km/h
404 08-05-2020 19:00:00 23.51667 C 7.34 g/m*3 23.52 C 6.175 km/h
405 08-05-2020 20:00:00 19.40833 C 8.51 g/m*3 19.41 C 3.2 km/h
406 08-05-2020 21:00:00 16.575 C 8.4 g/m*3 16.58 C 3.86667 km/h
407 08-05-2020 22:00:00 14.98333 C 8.64 g/m*3 14.98 C 0.8 km/h
408 08-05-2020 23:00:00 13.875 C 8.37 g/m*3 13.88 C 0 km/h
409 09-05-2020 00:00:00 12.69167 C 8.09 g/m*3 12.69 C 0 km/h
410 09-05-2020 01:00:00 11.875 C 8.11 g/m*3 11.88 C 0 km/h
411 09-05-2020 02:00:00 11.85 C 8.38 g/m*3 11.85 C 0 km/h
412 09-05-2020 03:00:00 11.29167 C 8.33 g/m*3 11.29 C 0 km/h
413 09-05-2020 04:00:00 9.99167 C 7.82 g/m*3 9.99 C 0 km/h
414 09-05-2020 05:00:00 9.425 C 7.81 g/m*3 9.43 C 0 km/h
415 09-05-2020 06:00:00 9.925 C 8.2 g/m*3 9.93 C 0.26667 km/h
416 09-05-2020 07:00:00 11.175 C 8.65 g/m*3 11.18 C 0 km/h
417 09-05-2020 08:00:00 12.55 C 8.95 g/m*3 12.55 C 0.13333 km/h
418 09-05-2020 09:00:00 14.8 C 9.45 g/m*3 14.8 C 1.06667 km/h
419 09-05-2020 10:00:00 16.65833 C 8.9 g/m*3 16.66 C 3.075 km/h
420 09-05-2020 11:00:00 17.99167 C 8.85 g/m*3 17.99 C 5.48333 km/h
421 09-05-2020 12:00:00 19.55 C 9.1 g/m*3 19.55 C 4.94167 km/h
422 09-05-2020 13:00:00 20.79167 C 9.68 g/m*3 20.79 C 5.21667 km/h
423 09-05-2020 14:00:00 21.06667 C 10.21 g/m*3 21.07 C 5.61667 km/h
424 09-05-2020 15:00:00 20.23333 C 11.24 g/m*3 20.23 C 7.125 km/h
425 09-05-2020 16:00:00 21.25 C 11.65 g/m*3 21.25 C 4.675 km/h
Sensor: Nr:Datum:Temp:Abs-Feuchte:Windchill:Wind:
Aussen-T/F 426 09-05-2020 17:00:00 21.28333 C 11.47 g/m*3 21.28 C 4.95833 km/h
427 09-05-2020 18:00:00 22.2 C 11.8 g/m*3 22.2 C 7.11667 km/h
428 09-05-2020 19:00:00 21.95833 C 11.41 g/m*3 21.96 C 4.41667 km/h
429 09-05-2020 20:00:00 20.21667 C 11.99 g/m*3 20.22 C 2.66667 km/h
430 09-05-2020 21:00:00 16.65 C 11.3 g/m*3 16.65 C 3.73333 km/h
431 09-05-2020 22:00:00 14.53333 C 10.74 g/m*3 14.53 C 2.93333 km/h
432 09-05-2020 23:00:00 13.41667 C 10.34 g/m*3 13.42 C 1.73333 km/h
433 10-05-2020 00:00:00 12.45 C 9.94 g/m*3 12.45 C 0.26667 km/h
434 10-05-2020 01:00:00 11.74167 C 9.58 g/m*3 11.74 C 0 km/h
435 10-05-2020 02:00:00 11.34167 C 9.41 g/m*3 11.34 C 0 km/h
436 10-05-2020 03:00:00 10.90833 C 9.29 g/m*3 10.91 C 0 km/h
437 10-05-2020 04:00:00 10.8 C 9.29 g/m*3 10.8 C 0.13333 km/h
438 10-05-2020 05:00:00 10.9 C 9.44 g/m*3 10.9 C 0.53333 km/h
439 10-05-2020 06:00:00 11.10833 C 9.57 g/m*3 11.11 C 0 km/h
440 10-05-2020 07:00:00 11.6 C 9.9 g/m*3 11.6 C 0 km/h
441 10-05-2020 08:00:00 12.075 C 10.19 g/m*3 12.08 C 0.13333 km/h
442 10-05-2020 09:00:00 12.9 C 10.63 g/m*3 12.9 C 0.53333 km/h
443 10-05-2020 10:00:00 14.68333 C 11.47 g/m*3 14.68 C 0.53333 km/h
444 10-05-2020 11:00:00 17.80833 C 12.45 g/m*3 17.81 C 2 km/h
445 10-05-2020 12:00:00 19.84167 C 12.88 g/m*3 19.84 C 5.49167 km/h
446 10-05-2020 13:00:00 21.11667 C 13.49 g/m*3 21.12 C 5.21667 km/h
447 10-05-2020 14:00:00 22.225 C 13.68 g/m*3 22.23 C 6.55833 km/h
448 10-05-2020 15:00:00 20.58333 C 12.93 g/m*3 20.58 C 7.10833 km/h
449 10-05-2020 16:00:00 19.69167 C 13.15 g/m*3 19.69 C 8.85 km/h
450 10-05-2020 17:00:00 18.26667 C 12.95 g/m*3 18.27 C 3.33333 km/h
Sensor: Nr:Datum:Temp:Abs-Feuchte:Windchill:Wind:
Aussen-T/F 451 10-05-2020 18:00:00 18.63333 C 13.17 g/m*3 18.63 C 2.53333 km/h
452 10-05-2020 19:00:00 18.44167 C 13.43 g/m*3 18.44 C 2.26667 km/h
453 10-05-2020 20:00:00 17.7 C 13.2 g/m*3 17.7 C 0.66667 km/h
454 10-05-2020 21:00:00 16.78333 C 12.83 g/m*3 16.78 C 1.06667 km/h
455 10-05-2020 22:00:00 15.84167 C 12.37 g/m*3 15.84 C 2.13333 km/h
456 10-05-2020 23:00:00 15.61667 C 12.38 g/m*3 15.62 C 0.53333 km/h
457 11-05-2020 00:00:00 15.9 C 12.14 g/m*3 15.9 C 10.075 km/h
458 11-05-2020 01:00:00 14.44167 C 10.55 g/m*3 14.44 C 13.7 km/h
459 11-05-2020 02:00:00 12.51667 C 9.39 g/m*3 12.52 C 14.76667 km/h
460 11-05-2020 03:00:00 10.8 C 8.34 g/m*3 8.9 C 15.03333 km/h
461 11-05-2020 04:00:00 8.78333 C 7.8 g/m*3 6.67 C 13.16667 km/h
462 11-05-2020 05:00:00 7.41667 C 7.36 g/m*3 4.63 C 15.7 km/h
463 11-05-2020 06:00:00 6.79167 C 7.11 g/m*3 4.95 C 9.29167 km/h
464 11-05-2020 07:00:00 6.19167 C 6.77 g/m*3 3.96 C 10.625 km/h
465 11-05-2020 08:00:00 5.8 C 6.67 g/m*3 2.98 C 13.425 km/h
466 11-05-2020 09:00:00 5.38333 C 6.15 g/m*3 1.8 C 17.975 km/h
467 11-05-2020 10:00:00 5.68333 C 6.14 g/m*3 2.77 C 13.83333 km/h
468 11-05-2020 11:00:00 6.16667 C 5.98 g/m*3 2.99 C 16.36667 km/h
469 11-05-2020 12:00:00 6.775 C 6.01 g/m*3 3.68 C 16.90833 km/h
470 11-05-2020 13:00:00 7.65 C 5.85 g/m*3 4.69 C 17.56667 km/h
471 11-05-2020 14:00:00 8.975 C 5.57 g/m*3 6.22 C 18.63333 km/h
472 11-05-2020 15:00:00 11.125 C 5.67 g/m*3 11.13 C 21.18333 km/h
473 11-05-2020 16:00:00 12.23333 C 5.51 g/m*3 12.23 C 24.14167 km/h
474 11-05-2020 17:00:00 12.16667 C 5.22 g/m*3 12.17 C 21.84167 km/h
475 11-05-2020 18:00:00 11.63333 C 4.98 g/m*3 11.63 C 20.78333 km/h
Sensor: Nr:Datum:Temp:Abs-Feuchte:Windchill:Wind:
Aussen-T/F 476 11-05-2020 19:00:00 11.625 C 4.88 g/m*3 11.63 C 19.04167 km/h
477 11-05-2020 20:00:00 10.9 C 4.67 g/m*3 8.96 C 15.56667 km/h
478 11-05-2020 21:00:00 9.975 C 4.54 g/m*3 8.54 C 10.35 km/h
479 11-05-2020 22:00:00 9.34167 C 5 g/m*3 9.34 C 3.06667 km/h
480 11-05-2020 23:00:00 7.56667 C 5.45 g/m*3 7.57 C 0.8 km/h
481 12-05-2020 00:00:00 5.375 C 5.19 g/m*3 5.38 C 2.4 km/h
482 12-05-2020 01:00:00 4.10833 C 4.99 g/m*3 4.11 C 2 km/h
483 12-05-2020 02:00:00 4.15 C 4.86 g/m*3 4.15 C 3.73333 km/h
484 12-05-2020 03:00:00 2.98333 C 4.75 g/m*3 1.65 C 5.34167 km/h
485 12-05-2020 04:00:00 2.43333 C 4.68 g/m*3 0.76 C 6.025 km/h
486 12-05-2020 05:00:00 2.01667 C 4.63 g/m*3 2.02 C 4.29167 km/h
487 12-05-2020 06:00:00 1.14167 C 4.56 g/m*3 1.14 C 0.26667 km/h
488 12-05-2020 07:00:00 1.29167 C 4.78 g/m*3 1.29 C 0.4 km/h
489 12-05-2020 08:00:00 2.49167 C 5.2 g/m*3 2.49 C 0.4 km/h
490 12-05-2020 09:00:00 4.41667 C 5.59 g/m*3 4.42 C 0.66667 km/h
491 12-05-2020 10:00:00 7.05 C 5.51 g/m*3 7.05 C 3.75 km/h
492 12-05-2020 11:00:00 9.075 C 5.03 g/m*3 8.36 C 6.175 km/h
493 12-05-2020 12:00:00 9.925 C 4.14 g/m*3 8.72 C 9.025 km/h
494 12-05-2020 13:00:00 10.93333 C 4.11 g/m*3 9.92 C 9 km/h
495 12-05-2020 14:00:00 12.06667 C 4.67 g/m*3 12.07 C 10.21667 km/h
496 12-05-2020 15:00:00 13.10833 C 4.97 g/m*3 13.11 C 11.29167 km/h
497 12-05-2020 16:00:00 14.075 C 5.11 g/m*3 14.08 C 9.14167 km/h
498 12-05-2020 17:00:00 14.19167 C 5.25 g/m*3 14.19 C 9.15 km/h
499 12-05-2020 18:00:00 14.98333 C 5.36 g/m*3 14.98 C 7.38333 km/h
500 12-05-2020 19:00:00 13.53333 C 5.25 g/m*3 13.53 C 6.56667 km/h
Sensor: Nr:Datum:Temp:Abs-Feuchte:Windchill:Wind:
Aussen-T/F 501 12-05-2020 20:00:00 11.91667 C 5.68 g/m*3 11.92 C 2.53333 km/h
502 12-05-2020 21:00:00 8.88333 C 5.86 g/m*3 8.88 C 1.6 km/h
503 12-05-2020 22:00:00 7.41667 C 5.55 g/m*3 7.42 C 4 km/h
504 12-05-2020 23:00:00 6.675 C 5.53 g/m*3 6.68 C 4.675 km/h

Maximal/Minimal-Werte vom 11.04.2020 - 13.05.2020

Sensor Min Max Avg
Temp
(Aussen-T/F)
-0.1 °C
15-04-2020  06:55:00
26.2 °C
17-04-2020  18:05:00
12.26 °C

Die Daten stammen von einer Davis Vantage Pro 2 Wetter-Station und werden unter Linux mit der Software wview2wettercgi und aufbereitet. Alle Angaben erfolgen ohne Gewähr für ihre Vollständigkeit oder Richtigkeit.
Kontakt: Rainer Krienke krienke@uni-koblenz.de . Meine Webseiten an der Uni Koblenz oder privat.
Version: $Revision: 0.78 $